Location: Newark
(45.9456°N, 15.4064°E)
Time: 06:19:07
(UTC+00:00)

SR - Pass Details

Date: 30 January 2020
Orbit: 575 x 881 km, 66.7° (Epoch: 17 February)

Event Time Altitude Azimuth Distance (km) Brightness Sun altitude
Rises 01:57:01 0° 328° (NNW) 3,455 - -45.8°
Reaches altitude 10° 02:01:22 10° 358° (N) 2,468 - -45.1°
Maximum altitude 02:03:34 12° 21° (NNE) 2,284 - -44.8°
Exits shadow 02:05:19 11° 39° (NE) 2,356 ? -44.5°
Drops below altitude 10° 02:05:44 10° 44° (NE) 2,401 ? -44.4°
Sets 02:09:48 0° 74° (ENE) 3,253 ? -43.8°
